This demonstration page uses our WeatherBlox Daily Observations layout. Learn more.

Left ArrowRight Arrow

38.88101, -77.10428

Hourly Observations for June 29, 2021

Temp ( °F °C ) Dew Point ( °F °C ) Humidity (%) Winds ( mph kmh ) Pressure ( in mb ) Visibility ( mi km ) Precip ( " mm )
12:52 am 00:52 Mostly Clear 79 26.1 71 21.7 77 77 S 9 15 30.26 1025 10 16 N/A
1:52 am 01:52 Mostly Clear 78 25.6 72 22.2 82 82 S 7 11 30.25 1024 10 16 N/A
2:52 am 02:52 Mostly Clear 77 25 72 22.2 85 85 S 9 15 30.25 1024 10 16 N/A
3:52 am 03:52 Clear 77 25 72 22.2 85 85 S 8 13 30.26 1025 10 16 N/A
4:52 am 04:52 Clear 77 25 71 21.7 82 82 SSW 5 7 30.26 1025 10 16 N/A
5:52 am 05:52 Mostly Sunny 77 25 72 22.2 85 85 S 9 15 30.27 1025 10 16 N/A
6:52 am 06:52 Mostly Sunny 77 25 72 22.2 85 85 S 9 15 30.27 1025 10 16 N/A
7:52 am 07:52 Mostly Sunny 79 26.1 72 22.2 79 79 S 7 11 30.27 1025 10 16 N/A
8:52 am 08:52 Mostly Sunny 81 27.2 73 22.8 77 77 S 10 17 30.27 1025 10 16 N/A
9:52 am 09:52 Partly Cloudy 83 28.3 74 23.3 74 74 S 9 15 30.26 1025 10 16 N/A
10:52 am 10:52 Mostly Sunny 86 30 74 23.3 67 67 S 10 17 30.25 1024 10 16 N/A
11:52 am 11:52 Mostly Sunny 88 31.1 74 23.3 63 63 S 10 17 30.24 1024 10 16 N/A
12:52 pm 12:52 Mostly Cloudy 90 32.2 72 22.2 56 56 SSE 16 26 30.24 1024 10 16 N/A
1:52 pm 13:52 Mostly Cloudy 90 32.2 72 22.2 56 56 S 14 22 30.22 1023 10 16 N/A
2:52 pm 14:52 Mostly Cloudy 91 32.8 72 22.2 54 54 S 14 22 30.20 1023 10 16 N/A
3:52 pm 15:52 Mostly Cloudy 93 33.9 70 21.1 47 47 SSW 13 20 30.19 1022 10 16 N/A
4:52 pm 16:52 Mostly Cloudy 92 33.3 71 21.7 51 51 S 12 19 30.17 1022 10 16 N/A
5:52 pm 17:52 Partly Cloudy 91 32.8 71 21.7 52 52 S 12 19 30.15 1021 10 16 N/A
6:52 pm 18:52 Partly Cloudy 90 32.2 71 21.7 54 54 S 15 24 30.14 1021 10 16 N/A
7:52 pm 19:52 Partly Cloudy 88 31.1 73 22.8 61 61 S 13 20 30.14 1021 10 16 N/A
8:52 pm 20:52 Mostly Clear 86 30 74 23.3 67 67 S 8 13 30.14 1021 10 16 N/A
9:52 pm 21:52 Mostly Clear 85 29.4 70 21.1 61 61 S 9 15 30.16 1021 10 16 N/A
10:52 pm 22:52 Mostly Clear 83 28.3 73 22.8 72 72 S 8 13 30.17 1022 10 16 N/A
11:52 pm 23:52 Mostly Clear 83 28.3 70 21.1 65 65 SSW 8 13 30.17 1022 10 16 N/A

Powered by AerisWeather